Detalii statie AGROIND CAUACEU DOISIG [00001986]

Toti senzorii

Date Temperatura solului [C]Precipitatii [mm]Voltaj baterie [mV]Leaf Wetness [Min]HC Air temperature [C]HC Relative humidity [%]Punctul de roua [C]
medieminmaxsumaultimatimpmedieminmaxmediemediemin
2019-02-21 00:00:00 0 6650
2019-02-21 01:00:00 0 6650
2019-02-21 02:00:00 0 6640
2019-02-21 03:00:00 0 6650
2019-02-21 04:00:00 0 6640
2019-02-21 05:00:00 0 6630
2019-02-21 06:00:00 0 6610
2019-02-21 07:00:00 0 6630
2019-02-21 08:00:00 0 6630
2019-02-21 09:00:00 0 6678
2019-02-21 10:00:00 0 6766
2019-02-21 11:00:00 0 6914
2019-02-21 12:00:00 0 7080
2019-02-21 13:00:00 0 7070
2019-02-21 14:00:00 0 7020
2019-02-21 15:00:00 0 6962
2019-02-21 16:00:00 0 6922
2019-02-21 17:00:00 0 6914
2019-02-21 18:00:00 0 6796
2019-02-21 19:00:00 0 6738
2019-02-21 20:00:00 0 6718
2019-02-21 21:00:00 0 6698
2019-02-21 22:00:00 0 6688
2019-02-21 23:00:00 0 6688
2019-02-22 00:00:00 0 6688
2019-02-22 01:00:00 0 6678
2019-02-22 02:00:00 0.6 6678
2019-02-22 03:00:00 1.6 6660
2019-02-22 04:00:00 1 6668
2019-02-22 05:00:00 0.2 6668
2019-02-22 06:00:00 0 6660
2019-02-22 07:00:00 0.4 6660
2019-02-22 08:00:00 0.8 6668
2019-02-22 09:00:00 0.6 6688
2019-02-22 10:00:00 0 6718
2019-02-22 11:00:00 0 6776
2019-02-22 12:00:00 0 6748
2019-02-22 13:00:00 0 6718
2019-02-22 14:00:00 0 6766
2019-02-22 15:00:00 0 7088
2019-02-22 16:00:00 0 7080
2019-02-22 17:00:00 0 7040
2019-02-22 18:00:00 0 6874
2019-02-22 19:00:00 0 6738
2019-02-22 20:00:00 0 6708
2019-02-22 21:00:00 0 6688